Regional Weather Roundup
Issued by NWS Upton, NY

Current Version | Previous Version | Text Only | Print | Product List | Glossary On
Versions: 1 2 3 4 5 6 7 8 9 10 11 12 13 14 15 16 17 18 19 20 21 22 23 24 25 26 27 28 29 30 31 32 33 34 35 36 37 38 39 40 41 42 43 44 45 46 47 48 49 50
000 ASUS41 KOKX 272205 RWROKX REGIONAL WEATHER ROUNDUP NATIONAL WEATHER SERVICE NEW YORK NY 500 PM EST FRI FEB 27 2015 NOTE: "FAIR" INDICATES FEW OR NO CLOUDS BELOW 12,000 FEET WITH NO SIGNIFICANT WEATHER AND/OR OBSTRUCTIONS TO VISIBILITY. NYZ071-072-176-178-NJZ106-104-272300- NEW YORK CITY METRO AREA CITY SKY/WX TMP DP RH WIND PRES REMARKS CENTRAL PARK CLEAR 29 2 31 NW10 30.44R WCI 20 LAGUARDIA APRT PTCLDY 30 7 37 NW14 30.43R WCI 19 KENNEDY INTL PTCLDY 31 4 31 W12G22 30.44R WCI 22 NEWARK/LIBERTY PTCLDY 29 6 38 W10G21 30.43R WCI 20 BRNX BOT. GARD N/A N/A N/A N/A NW2 30.44R TETERBORO CLEAR 29 3 33 NW9 30.42R WCI 20 $$ NYZ177-179-078>081-272300- LONG ISLAND NEW YORK CITY SKY/WX TMP DP RH WIND PRES REMARKS FARMINGDALE CLEAR 27 4 37 NW7 30.43R WCI 19 ISLIP PTCLDY 27 5 39 NW10 30.41R WCI 17 SHIRLEY CLEAR 26 4 38 NW8 30.43R WCI 18 WESTHAMPTON CLEAR 26 2 35 NW12 30.43R WCI 16 MONTAUK POINT N/A 26 9 48 W6 30.40R WCI 19 $$ NYZ052-065-067-272300- HUDSON VALLEY CITY SKY/WX TMP DP RH WIND PRES REMARKS WHITE PLAINS CLEAR 25 3 38 NW6 30.39R WCI 18 NEWBURGH CLEAR 25 5 42 NW12 30.39R WCI 14 MONTGOMERY CLEAR 26 0 32 W12G20 30.39R WCI 16 POUGHKEEPSIE CLEAR 27 2 34 N7 30.41R WCI 19 ALBANY PTCLDY 20 0 41 W16 30.43R WCI 6 $$ NJZ001-105-106-008-010-013-015-019>022-104-272300- NEW JERSEY CITY SKY/WX TMP DP RH WIND PRES REMARKS NEWARK/LIBERTY PTCLDY 29 6 38 W10G21 30.43R WCI 20 TETERBORO CLEAR 29 3 33 NW9 30.42R WCI 20 CALDWELL CLEAR 28 2 32 NW8 30.43R WCI 20 MORRISTOWN CLEAR 28 5 37 NW13 30.44R WCI 18 SOMERVILLE CLEAR 29 3 33 NW8 30.43R WCI 21 SUSSEX CLEAR 25 0 33 NW8 30.42R WCI 16 ANDOVER N/A 25 1 35 VRB6 30.41R WCI 18 TRENTON CLEAR 28 3 34 W12 30.45R WCI 18 MILLVILLE CLEAR 29 11 47 W9 30.47R WCI 20 ATLANTIC CITY PTCLDY 31 13 47 NW9 30.45R WCI 23 WRIGHTSTOWN CLEAR 28 8 42 NW10 30.44R WCI 18 TOMS RIVER CLEAR 28 9 43 NW13 30.45R WCI 18 BELMAR CLEAR 28 7 40 W10 30.44R WCI 19 $$ PAZ047>061-062-071-272300- EASTERN PENNSYLVANIA CITY SKY/WX TMP DP RH WIND PRES REMARKS PHILADELPHIA CLEAR 30 7 37 NW6 30.49R WCI 24 ALLENTOWN CLEAR 25 4 40 W6 30.45R WCI 18 SCRANTON CLEAR 21 0 39 NW14 30.41R WCI 8 $$ CTZ002-004>006-009-010-012-RIZ004-006-007-MAZ004-011-015-272300- SOUTHERN NEW ENGLAND IN CT CITY SKY/WX TMP DP RH WIND PRES REMARKS BRADLEY INTL PTCLDY 25 -2 31 NW14 30.38R WCI 13 HARTFORD CLEAR 26 -1 31 W13G21 30.41R WCI 15 DANBURY CLEAR 24 -1 33 N9 30.40R WCI 14 WTRBRY/OXFORD CLEAR 21 -2 35 N9G17 30.37R WCI 11 BRIDGEPORT CLEAR 27 2 34 N9 30.42R WCI 18 MERIDEN CLEAR 26 -1 31 W10 30.40R WCI 16 NEW HAVEN PTCLDY 26 -1 31 N8 30.41R WCI 18 CHESTER FAIR 28 0 29 N9 30.37R WCI 20 GROTON CLEAR 26 6 42 W9 30.39R WCI 17 WILLIMANTIC CLEAR 26 -2 29 W8 30.38R WCI 18 IN RI CITY SKY/WX TMP DP RH WIND PRES REMARKS PROVIDENCE PTCLDY 25 11 55 S8 30.37R WCI 16 BLOCK ISLAND CLEAR 27 10 50 W12G17 30.37R WCI 16 WESTERLY CLEAR 28 3 34 VRB6 30.39R WCI 22 IN MA CITY SKY/WX TMP DP RH WIND PRES REMARKS BOSTON PTCLDY 26 -3 28 W8 30.37R WCI 18 WORCESTER CLEAR 22 -3 33 W9 30.30R WCI 12 WESTFIELD CLEAR 23 -2 33 NW13 30.38R WCI 11 PROVINCETOWN CLEAR 23 1 39 NW7 30.39R WCI 15 NANTUCKET CLEAR 24 10 55 SW9 30.38R WCI 14 $$ ANZ330-335-338-340-345-350-353-355-272300- COASTAL MARINE OBSERVATIONS STATION/POSITION TIME SKY/WX TEMP WIND PRES VSBY WAVE AIR SEA DIR/SP/G HT/PER (UTC) (F) (DEG/KT/KT) (MB) (MI) (FT/S) NY HARB ENTRANCE 2200 29 38 290/ 10/ 14 1030.6 4/11 4S FIRE IS NOT AVBL 20S FIRE ISLAND 2100 36 1030.6 5/11 23SW MTP 2200 N/A 5/11 HUDSON CANYON NOT AVBL EXECUTION ROCKS NOT AVBL WESTERN LI SOUND NOT AVBL CENTRAL LI SOUND NOT AVBL EASTERN LI SOUND NOT AVBL ROBBINS REEF 2200 28 310/ 9/ 11 1029.3 $$ >>>>>>>>>>>>>>>>>>>>>>>>>>>> KEY <<<<<<<<<<<<<<<<<<<<<<<<<<< > < > SKY/WX - SKY CONDITION/PRESENT WEATHER < > TMP - TEMPERATURE IN FAHRENHEIT < > DP - DEWPOINT IN FAHRENHEIT < > RH - RELATIVE HUMIDITY IN PERCENT < > WIND - DIRECTION AND SPEED IN MPH < > PRES - MEAN SEA LEVEL PRESSURE IN INCHES OF HG < > WCI - WIND CHILL INDEX < > VSB - VISIBILITY IN MILES < > HX - HEAT INDEX < > TC - TEMPERATURE IN CELSIUS < > VRB - VARIABLE WIND DIRECTION < > < >>>>>>>>>>>>>>>>>>>>>>>>>>>> KEY <<<<<<<<<<<<<<<<<<<<<<<<<<<

USA.gov is the U.S. government's official web portal to all federal, state and local government web resources and services.